Wind_Speed
25 24 24 25 24 24 24 23 23 23 24 24 24 24 23 23 23 23 23 23 24 25 25 25 26 26 26 27 28 28 27 27 27 27 26 26 27 27 27 27 27 28 28 29
28 27 27 27 26 26 27 27 27 26 27 27 27 27 26 26 26 26 26 26 27 27 28 28 28 28 29 29 29 30 30 30 30 29 29 28 28 29 29 29 30 30 30 30
29 29 29 30 28 29 29 29 28 28 29 29 30 29 29 28 28 28 28 28 29 29 30 30 30 30 31 31 32 32 33 33 33 32 32 32 31 31 31 32 32 32 32 32
31 31 32 31 31 31 31 31 31 31 31 31 31 31 30 30 31 31 30 31 31 31 31 31 32 32 32 33 33 33 34 35 34 34 35 35 34 33 33 34 34 34 34 34
32 33 34 34 34 33 33 34 34 34 33 33 32 33 33 32 32 32 31 31 32 33 33 33 33 34 34 34 35 34 34 36 36 36 37 37 37 36 36 36 36 36 35 35
33 33 33 34 34 33 34 36 35 35 35 34 33 34 35 34 33 33 33 33 33 34 34 34 34 35 35 36 36 36 36 37 37 37 38 39 39 38 39 38 37 37 37 37
34 34 34 35 35 34 35 36 35 35 35 35 34 35 35 35 35 35 35 35 35 36 36 36 36 36 37 36 36 36 38 38 38 38 39 39 39 39 39 39 39 38 38 38
34 34 35 35 36 36 36 36 36 36 36 36 36 36 36 36 36 36 36 37 37 38 38 38 38 39 39 38 38 38 38 39 39 39 39 39 39 38 38 39 40 39 39 39
34 35 35 36 37 37 37 37 37 37 36 36 37 37 36 36 37 37 37 38 39 39 39 40 40 41 40 40 40 39 39 39 39 39 40 40 40 40 40 40 40 41 41 41
35 35 36 36 36 37 37 37 37 37 37 37 37 37 37 37 38 38 38 38 39 39 39 39 40 41 41 41 40 40 39 39 39 40 40 40 40 40 40 40 40 40 40 40
33 33 33 33 34 35 36 36 37 37 37 37 37 37 38 38 38 39 39 38 39 39 39 39 40 40 41 41 41 41 40 40 40 40 41 40 40 40 39 39 39 39 39 39
32 32 33 33 34 34 35 35 36 36 36 37 37 38 38 38 39 39 39 39 39 39 40 40 40 40 40 40 40 41 40 40 39 39 39 39 40 39 39 38 37 38 38 39
32 32 33 33 33 34 34 35 35 36 37 37 38 38 38 39 39 39 39 39 39 40 40 40 41 41 41 41 41 40 40 40 39 39 38 38 38 39 39 39 38 39 39 39
31 31 32 32 33 34 34 34 35 36 36 36 37 38 38 38 39 39 39 40 40 41 41 42 42 41 41 41 41 41 40 40 40 39 39 38 38 38 39 39 39 39 39 38
28 29 30 30 31 32 33 33 34 34 35 36 36 37 37 38 39 40 41 41 41 41 41 41 42 42 42 42 42 41 40 40 40 39 38 38 38 38 38 38 38 37 37 36
27 28 29 29 29 31 31 32 33 33 34 35 36 37 37 38 38 39 39 39 39 39 39 39 40 40 40 41 41 40 40 39 40 39 38 37 37 37 37 36 35 35 36 35
25 26 26 27 28 29 30 31 32 33 34 35 35 36 36 36 36 37 37 37 38 38 38 38 38 38 38 38 38 38 38 38 38 37 36 36 36 36 35 35 35 35 34 34
23 24 25 26 27 28 29 30 31 31 32 32 33 33 34 34 34 35 35 35 35 36 36 36 35 35 35 35 34 34 34 35 35 35 35 35 34 34 34 34 33 32 32 31
22 23 24 25 25 26 26 27 28 29 29 30 31 31 31 32 32 32 32 32 32 33 33 33 33 32 32 32 32 32 32 32 33 34 33 33 32 32 31 31 31 31 31 32
20 21 22 23 23 24 24 25 26 26 27 27 28 28 28 28 28 28 28 29 28 28 28 29 29 29 30 30 30 30 30 30 31 32 32 31 31 31 30 30 29 29 30 31
19 19 20 20 21 22 22 23 24 23 24 24 24 24 24 25 25 26 26 26 26 25 25 25 25 25 26 26 27 27 28 28 29 29 29 29 29 30 29 29 29 30 30 30
17 18 18 19 19 20 20 20 21 21 21 21 21 22 22 23 23 23 23 23 23 22 22 22 23 24 24 24 25 26 27 28 28 28 29 29 29 29 29 29 29 29 29 30
16 17 17 18 18 18 18 18 19 20 20 20 20 20 21 21 20 20 20 20 21 21 21 21 22 23 23 24 25 26 26 27 27 27 27 27 28 29 29 29 30 30 30 30
15 15 16 17 17 17 18 18 18 18 19 19 19 19 20 20 20 20 20 20 19 20 20 21 21 21 21 22 23 24 24 24 25 24 24 25 27 28 28 29 29 29 29 29
14 15 16 16 17 17 17 17 17 17 18 18 18 19 19 19 19 18 18 18 18 18 19 20 20 20 21 22 22 22 23 22 22 23 23 24 25 26 27 27 27 28 29 29
15 15 16 16 16 17 17 17 17 17 16 17 17 18 18 18 18 18 17 17 17 18 18 18 19 19 19 20 20 20 20 20 21 21 23 23 24 25 26 27 27 27 28 28
15 16 16 16 17 17 18 17 17 17 17 17 17 18 18 18 17 17 17 17 18 18 18 19 19 19 18 18 19 19 20 21 21 21 22 22 22 23 23 24 25 26 27 27
Wind_Direction
246 249 253 254 255 257 257 258 263 266 268 269 272 272 269 269 268 267 268 268 268 268 269 270 271 272 273 274 272 272 270 268 268 270 271 271 272 273 275 276 277 278 278 279
250 252 254 253 254 256 259 262 265 268 270 270 272 272 271 269 268 267 267 269 269 268 268 269 269 270 272 275 274 272 269 267 267 267 268 271 273 273 274 275 276 277 279 280
254 255 255 256 256 258 261 263 266 268 269 270 272 271 271 270 269 269 268 268 269 269 269 269 269 269 271 272 272 271 269 267 267 268 269 271 274 273 274 275 276 276 277 278
256 258 257 258 259 260 263 264 265 266 267 269 272 271 271 270 269 269 269 269 268 268 266 267 267 268 269 271 271 271 270 268 269 268 270 272 275 275 275 275 275 274 274 275
258 260 262 261 262 262 263 265 265 266 267 269 270 271 271 270 270 269 269 268 268 267 266 267 267 267 269 270 270 270 270 269 270 270 271 272 273 274 273 274 274 274 275 275
259 259 260 262 263 264 265 266 266 266 267 269 269 269 270 271 270 270 269 269 269 268 268 269 269 269 270 270 270 270 270 270 270 271 270 271 271 272 271 271 272 273 274 275
259 260 260 262 264 264 264 266 268 268 268 269 269 269 270 271 270 269 268 267 267 267 268 270 270 270 270 270 270 271 270 269 269 270 270 270 270 270 269 269 270 272 273 274
259 260 260 263 264 264 265 266 267 268 269 269 270 270 270 270 269 268 267 266 266 267 269 270 271 270 270 270 271 270 270 269 269 270 270 270 271 271 270 269 270 271 272 273
258 259 261 263 264 265 266 267 268 269 270 271 272 272 271 271 270 269 267 265 265 267 269 270 271 271 270 271 271 272 271 270 271 271 270 270 271 272 271 271 269 269 270 271
259 260 262 264 265 266 267 268 269 270 271 272 273 273 272 273 272 271 270 267 266 267 268 269 270 271 271 271 271 272 272 273 272 271 271 271 272 271 271 270 269 270 269 269
261 262 263 263 264 265 266 268 270 270 271 272 273 273 273 272 272 271 269 269 267 267 267 268 269 271 272 273 273 273 273 273 273 273 272 272 271 271 270 269 268 267 267 268
262 262 263 264 265 266 267 268 269 271 272 273 273 273 273 273 272 270 270 270 269 268 268 268 269 270 271 272 272 272 271 272 272 273 273 272 270 270 269 269 268 266 266 267
264 264 264 265 266 267 268 270 271 272 273 273 274 274 274 273 272 271 270 270 269 269 269 269 269 270 270 271 272 272 272 272 272 273 272 272 272 271 271 269 268 267 267 267
265 266 266 266 267 268 269 271 272 272 273 273 274 274 274 273 273 272 272 271 271 270 270 270 270 270 270 271 271 270 271 272 271 270 270 271 270 270 270 268 268 268 267 266
266 267 267 267 267 269 271 272 273 273 274 274 274 275 276 275 274 274 273 273 273 272 270 270 270 270 270 270 270 270 270 270 270 269 268 268 268 269 269 268 268 268 267 265
267 268 268 269 270 272 273 275 275 275 275 275 276 276 277 277 277 275 275 274 273 273 272 271 271 271 270 270 269 268 267 267 268 268 267 267 268 268 268 268 267 267 266 265
270 270 271 272 273 274 275 276 277 277 278 278 278 278 278 278 278 277 275 275 274 273 273 273 272 271 271 270 268 266 265 265 265 265 265 265 266 265 265 266 266 266 265 265
271 273 274 276 277 278 278 279 280 280 280 281 281 281 281 281 280 278 277 276 276 275 274 273 272 270 269 269 267 266 265 263 263 263 264 264 264 264 264 264 264 264 264 264
274 276 278 279 280 281 282 282 283 283 283 283 284 284 284 283 282 281 280 279 277 276 274 273 272 270 268 267 266 264 263 262 262 262 263 263 262 261 262 262 262 263 263 263
278 280 282 283 283 283 284 286 287 287 287 287 286 286 286 285 284 283 282 281 280 277 275 273 272 271 269 267 264 263 262 262 263 263 261 261 263 263 262 261 261 263 264 265
282 284 284 285 286 287 288 290 290 291 291 291 290 288 287 287 286 285 285 284 281 278 275 272 271 270 268 266 264 263 262 263 264 262 262 264 264 265 265 264 263 263 265 265
285 287 287 288 290 291 293 295 294 294 293 294 293 292 292 291 290 289 289 287 284 281 279 275 271 269 268 267 267 265 265 265 265 264 264 264 263 264 265 265 265 266 266 265
288 289 290 292 294 296 298 300 299 297 295 296 297 297 296 296 294 293 292 290 287 285 282 280 276 273 272 271 270 269 267 267 266 265 264 263 264 265 265 265 267 269 270 270
290 290 292 295 296 299 301 302 302 300 298 297 298 299 299 296 296 296 296 295 293 288 287 286 284 281 278 277 275 273 270 268 267 268 267 266 264 264 265 266 267 268 270 270
291 292 294 296 298 301 303 304 303 301 300 299 299 300 301 301 299 298 297 296 295 294 292 290 287 285 282 280 277 274 270 270 270 269 267 266 266 267 267 267 268 269 269 270
292 294 296 298 301 302 303 304 303 303 302 301 302 302 302 304 303 300 297 296 298 299 297 294 292 289 286 284 281 276 272 270 270 271 269 268 267 267 267 268 270 271 271 271
291 294 296 298 300 303 304 304 303 303 302 301 303 303 303 304 303 302 299 298 300 301 300 297 294 291 288 286 283 278 275 271 270 271 271 269 269 269 269 271 272 273 273 272
Height
5868 5869 5870 5870 5871 5872 5873 5874 5876 5876 5876 5875 5874 5874 5874 5874 5874 5875 5875 5875 5875 5874 5874 5874 5874 5873 5873 5872 5871 5871 5871 5871 5871 5871 5871 5870 5870 5870 5869 5869 5868 5867 5866 5866
5860 5861 5862 5863 5864 5865 5866 5866 5867 5867 5868 5867 5866 5867 5866 5867 5867 5867 5867 5868 5867 5867 5867 5867 5866 5866 5865 5865 5864 5863 5863 5863 5863 5863 5863 5863 5863 5862 5862 5861 5861 5860 5859 5858
5853 5854 5854 5855 5857 5858 5858 5858 5859 5859 5860 5859 5859 5859 5859 5859 5859 5859 5859 5860 5860 5859 5859 5858 5858 5858 5857 5856 5856 5855 5855 5854 5854 5855 5855 5855 5854 5854 5854 5853 5852 5851 5850 5849
5845 5846 5846 5850 5848 5849 5850 5850 5850 5850 5850 5850 5850 5850 5850 5850 5850 5850 5851 5851 5851 5851 5851 5850 5849 5849 5848 5848 5847 5846 5845 5845 5845 5845 5845 5845 5845 5845 5844 5844 5843 5842 5841 5840
5836 5836 5837 5838 5839 5840 5840 5840 5841 5841 5841 5841 5841 5841 5841 5841 5841 5841 5841 5841 5841 5841 5841 5841 5841 5840 5839 5838 5837 5837 5836 5836 5836 5836 5836 5836 5835 5835 5834 5833 5833 5832 5831 5830
5826 5827 5828 5830 5829 5829 5831 5830 5830 5831 5831 5832 5832 5832 5831 5831 5831 5831 5831 5831 5831 5831 5831 5831 5831 5830 5830 5829 5828 5828 5827 5826 5826 5825 5825 5825 5824 5823 5823 5822 5822 5822 5821 5820
5816 5816 5818 5819 5819 5820 5822 5821 5820 5820 5821 5821 5821 5822 5821 5821 5821 5821 5821 5821 5821 5821 5821 5820 5820 5820 5819 5819 5818 5817 5816 5816 5815 5815 5814 5814 5813 5812 5811 5811 5810 5811 5810 5810
5806 5807 5810 5808 5808 5809 5810 5809 5810 5810 5810 5810 5811 5811 5810 5810 5810 5810 5810 5810 5810 5810 5810 5809 5809 5809 5808 5808 5807 5806 5805 5805 5804 5804 5803 5802 5802 5801 5800 5799 5799 5799 5799 5799
5797 5798 5797 5797 5797 5797 5798 5798 5798 5799 5799 5799 5799 5799 5799 5799 5799 5799 5799 5799 5799 5799 5798 5798 5797 5797 5797 5796 5796 5794 5794 5793 5793 5792 5792 5791 5790 5789 5788 5788 5787 5787 5787 5787
5785 5786 5786 5786 5786 5786 5787 5787 5787 5788 5788 5788 5788 5788 5788 5788 5788 5787 5787 5787 5787 5787 5786 5786 5785 5785 5784 5784 5783 5782 5781 5781 5781 5780 5779 5779 5778 5777 5776 5776 5775 5775 5775 5775
5774 5775 5775 5775 5776 5776 5776 5776 5776 5777 5777 5777 5777 5776 5776 5776 5776 5775 5775 5775 5774 5774 5774 5774 5774 5773 5772 5772 5771 5770 5770 5769 5768 5768 5767 5766 5765 5765 5764 5764 5763 5763 5763 5763
5764 5765 5765 5765 5765 5766 5766 5766 5766 5766 5766 5765 5765 5765 5764 5764 5763 5763 5763 5762 5762 5762 5762 5761 5761 5761 5760 5759 5759 5758 5758 5757 5756 5755 5754 5754 5753 5752 5752 5752 5752 5751 5751 5751
5753 5754 5754 5755 5755 5755 5755 5755 5755 5755 5754 5754 5753 5752 5752 5751 5751 5750 5750 5749 5749 5749 5749 5748 5748 5748 5747 5747 5746 5745 5745 5744 5744 5743 5742 5741 5741 5740 5740 5740 5739 5739 5739 5739
5743 5743 5743 5744 5744 5744 5744 5744 5744 5743 5743 5742 5741 5740 5740 5739 5738 5738 5737 5737 5736 5736 5735 5735 5735 5734 5734 5733 5733 5733 5732 5731 5731 5730 5730 5729 5729 5728 5728 5727 5727 5727 5727 5727
5733 5733 5734 5733 5733 5734 5733 5733 5733 5732 5731 5730 5729 5728 5727 5726 5725 5725 5724 5723 5722 5722 5722 5721 5721 5720 5720 5719 5719 5719 5719 5719 5718 5718 5717 5717 5717 5716 5715 5715 5714 5714 5715 5715
5725 5724 5724 5724 5724 5724 5723 5722 5722 5721 5720 5719 5718 5716 5715 5714 5712 5711 5710 5709 5709 5708 5708 5707 5707 5706 5706 5706 5705 5706 5706 5706 5705 5705 5705 5705 5705 5704 5704 5704 5703 5703 5703 5703
5716 5716 5715 5715 5714 5714 5713 5712 5711 5710 5709 5707 5706 5704 5703 5701 5700 5699 5698 5697 5696 5696 5695 5694 5694 5693 5692 5692 5692 5692 5693 5693 5693 5693 5693 5693 5693 5693 5693 5693 5693 5693 5693 5693
5708 5707 5707 5706 5705 5704 5703 5701 5700 5699 5698 5696 5695 5693 5691 5690 5688 5687 5686 5685 5684 5683 5682 5681 5681 5680 5680 5679 5679 5680 5680 5681 5681 5682 5682 5682 5682 5682 5682 5682 5682 5682 5682 5682
5701 5700 5699 5697 5696 5695 5693 5692 5690 5689 5687 5686 5684 5682 5681 5679 5677 5676 5675 5673 5672 5671 5671 5670 5669 5668 5668 5668 5668 5669 5669 5670 5670 5670 5671 5671 5671 5671 5672 5671 5672 5672 5672 5673
5694 5692 5691 5690 5688 5686 5685 5683 5681 5680 5678 5676 5675 5673 5671 5669 5668 5666 5664 5663 5662 5661 5660 5659 5658 5658 5657 5657 5657 5658 5659 5659 5659 5660 5660 5660 5661 5661 5661 5662 5662 5662 5663 5663
5687 5686 5684 5683 5681 5679 5678 5676 5674 5672 5670 5668 5667 5665 5663 5661 5660 5658 5656 5654 5653 5651 5650 5649 5649 5648 5648 5648 5648 5648 5649 5649 5650 5650 5650 5651 5651 5652 5652 5652 5652 5653 5653 5653
5681 5680 5679 5677 5675 5673 5671 5669 5667 5666 5664 5662 5660 5658 5656 5654 5652 5651 5649 5647 5645 5643 5642 5641 5641 5640 5639 5639 5639 5639 5640 5640 5640 5640 5641 5642 5642 5642 5643 5643 5643 5643 5643 5643
5676 5675 5673 5671 5670 5668 5666 5664 5662 5660 5658 5656 5654 5652 5650 5648 5646 5644 5642 5640 5638 5636 5635 5634 5633 5632 5632 5631 5631 5631 5631 5631 5631 5631 5631 5632 5633 5633 5633 5633 5633 5633 5633 5633
5671 5670 5668 5667 5665 5663 5661 5659 5657 5655 5653 5651 5649 5646 5644 5642 5640 5638 5636 5634 5632 5630 5629 5627 5626 5625 5624 5623 5623 5622 5622 5622 5622 5622 5622 5623 5623 5623 5624 5624 5624 5623 5623 5623
5667 5666 5664 5662 5660 5658 5656 5654 5652 5650 5648 5646 5643 5641 5639 5637 5634 5632 5630 5628 5626 5624 5622 5621 5619 5617 5616 5616 5615 5614 5614 5614 5614 5614 5614 5614 5614 5614 5614 5614 5614 5614 5613 5613
5663 5661 5659 5658 5656 5654 5652 5650 5647 5645 5643 5641 5639 5636 5634 5632 5629 5627 5625 5623 5621 5619 5617 5614 5612 5611 5609 5608 5607 5607 5606 5606 5606 5605 5606 5605 5605 5605 5605 5605 5604 5603 5603 5602
5658 5656 5655 5653 5651 5649 5647 5645 5643 5641 5638 5636 5634 5632 5629 5627 5624 5622 5620 5618 5616 5614 5611 5609 5607 5605 5603 5602 5600 5600 5599 5599 5599 5598 5598 5598 5597 5597 5596 5595 5595 5594 5593 5593